Hamilton, OH

12:40 AM EDT on June 27, 2017 (GMT -0400)
Butler County Regional

Weather History for KHAO - January, 2013

Change the Weather History Date:

Sunday, January 6, 2013

  Actual Average (KLUK) Record (KLUK)
Temperature  
Mean Temperature 34 °F -  
Max Temperature 39 °F 39 °F 62 °F (1998)
Min Temperature 28 °F 24 °F -5 °F (2014)
Degree Days  
Heating Degree Days 32    
Moisture  
Dew Point 26 °F    
Average Humidity 72    
Maximum Humidity 79    
Minimum Humidity 65    
Precipitation  
Precipitation 0.00 in - - ()
Sea Level Pressure  
Sea Level Pressure 30.18 in    
Wind  
Wind Speed 7 mph (WSW)    
Max Wind Speed 16 mph    
Max Gust Speed 29 mph    
Visibility 8 miles    
Events Rain    
Averages and records for this station are not official NWS values.
T = Trace of Precipitation, MM = Missing Value Source: NWS Daily Summary

Daily Weather History Graph

Daily Weather History Graph

Search for Another Location

Airport or City:

Trip Planner

Search our weather history database for the weather conditions in past years. The results will help you decide how hot, cold, wet, or windy it might be!

Date:

Astronomy

Jan. 06, 2013 Rise Set
Actual Time 7:58 AM EST 5:30 PM EST
Civil Twilight 7:28 AM EST 6:00 PM EST
Nautical Twilight 6:54 AM EST 6:33 PM EST
Astronomical Twilight 6:22 AM EST 7:05 PM EST
Moon 2:12 AM EST (1/6) 12:56 PM EST (1/6)
Length of Visible Light 10h 31m
Length of Day
9h 31m
Waning Crescent, 33% of the Moon is Illuminated
Jan 6
Waning Crescent
Jan 11
New
Jan 18
First Quarter
Jan 26
Full
Feb 3
Last Quarter

Hourly Weather History & Observations

Time (EST) Temp. Windchill Dew Point Humidity Pressure Visibility Wind Dir Wind Speed Gust Speed Precip Events Conditions
12:53 AM 34.0 °F - 26.1 °F 73% 30.17 in 10.0 mi Calm Calm - N/A   Overcast
1:53 AM 37.0 °F 34.5 °F 26.1 °F 65% 30.15 in 10.0 mi SSW 3.5 mph - N/A   Overcast
2:53 AM 37.0 °F 33.3 °F 27.0 °F 67% 30.14 in 10.0 mi SSW 4.6 mph - N/A   Overcast
3:53 AM 37.0 °F 32.4 °F 28.0 °F 70% 30.12 in 10.0 mi SW 5.8 mph - N/A   Overcast
4:53 AM 37.0 °F 32.4 °F 28.0 °F 70% 30.10 in 10.0 mi SW 5.8 mph - N/A   Overcast
5:53 AM 37.0 °F 32.4 °F 28.0 °F 70% 30.09 in 10.0 mi SW 5.8 mph - N/A   Overcast
6:53 AM 37.9 °F 32.1 °F 28.0 °F 68% 30.09 in 10.0 mi SW 8.1 mph - N/A   Overcast
7:53 AM 37.0 °F 32.4 °F 28.9 °F 73% 30.10 in 10.0 mi SSW 5.8 mph - N/A   Overcast
8:53 AM 37.9 °F 34.4 °F 28.9 °F 70% 30.10 in 10.0 mi SSW 4.6 mph - N/A   Overcast
9:53 AM 39.0 °F 34.8 °F 30.0 °F 70% 30.10 in 10.0 mi SW 5.8 mph - N/A   Overcast
10:53 AM 39.0 °F 32.8 °F 30.0 °F 70% 30.10 in 10.0 mi SW 9.2 mph 17.3 mph N/A   Overcast
11:37 AM 39.2 °F 33.6 °F 30.2 °F 70% 30.07 in 10.0 mi SW 8.1 mph - N/A   Overcast
11:53 AM 39.0 °F 32.8 °F 30.9 °F 73% 30.08 in 10.0 mi SW 9.2 mph 16.1 mph N/A   Overcast
12:53 PM 37.9 °F 32.1 °F 30.9 °F 76% 30.06 in 10.0 mi WSW 8.1 mph - N/A   Overcast
1:11 PM 37.4 °F 31.4 °F 30.2 °F 75% 30.04 in 10.0 mi WSW 8.1 mph - N/A   Overcast
1:43 PM 37.4 °F 30.3 °F 30.2 °F 75% 30.05 in 9.0 mi WSW 10.4 mph 16.1 mph N/A   Overcast
1:53 PM 37.0 °F 28.1 °F 30.9 °F 79% 30.08 in 6.0 mi WNW 15.0 mph 25.3 mph 0.00 in Rain Light Rain
2:11 PM 33.8 °F 23.5 °F 26.6 °F 75% 30.08 in 7.0 mi WNW 16.1 mph 28.8 mph 0.00 in   Overcast
2:53 PM 33.1 °F 24.9 °F 26.1 °F 75% 30.13 in 9.0 mi West 10.4 mph 17.3 mph 0.00 in   Overcast
3:53 PM 32.0 °F 21.6 °F 23.0 °F 69% 30.18 in 9.0 mi West 15.0 mph 21.9 mph N/A   Overcast
4:53 PM 32.0 °F 23.0 °F 24.1 °F 73% 30.22 in 7.0 mi WNW 11.5 mph - N/A   Overcast
5:53 PM 30.9 °F 19.8 °F 23.0 °F 72% 30.25 in 7.0 mi WNW 16.1 mph 26.5 mph N/A   Overcast
6:45 PM 28.4 °F 21.2 °F 21.2 °F 74% 30.26 in 7.0 mi West 6.9 mph - N/A   Overcast
6:53 PM 28.9 °F 20.4 °F 21.0 °F 72% 30.28 in 7.0 mi West 9.2 mph - N/A   Overcast
7:30 PM 28.4 °F 19.7 °F 21.2 °F 74% 30.29 in 7.0 mi West 9.2 mph - N/A   Overcast
7:53 PM 28.9 °F 21.1 °F 21.0 °F 72% 30.32 in 7.0 mi WNW 8.1 mph - N/A   Overcast
8:53 PM 28.9 °F 20.4 °F 21.0 °F 72% 30.35 in 6.0 mi WNW 9.2 mph - N/A   Haze
9:46 PM 28.4 °F 20.4 °F 21.2 °F 74% 30.33 in 6.0 mi West 8.1 mph - N/A   Haze
9:53 PM 28.9 °F 21.9 °F 21.0 °F 72% 30.35 in 6.0 mi West 6.9 mph - N/A   Haze
10:53 PM 28.9 °F 21.1 °F 21.9 °F 75% 30.38 in 7.0 mi WNW 8.1 mph - N/A   Overcast
11:53 PM 28.9 °F 22.8 °F 21.9 °F 75% 30.39 in 7.0 mi West 5.8 mph - N/A   Overcast